User: anonymous
Location: Theodore Roosevelt National Park
(46.9990°N, 103.4631°W)
Time: 07:53:39
(UTC-06:00)
Language:

Cosmos 2219 Rocket - Orbit

View from above orbital plane
View from above orbital plane
View from above satellite
View from above satellite

Ground track
Ground track

The orbit data is extracted from the following two-line orbital elements,

1 22220U 92076B   14213.17272219 -.00000221  00000-0 -87291-4 0  3659
2 22220 071.0010 111.4205 0010876 069.5411 038.1721 14.16317285121959
Epoch (UTC): 01 August 2014 04:08:43
Eccentricity: 0.0010876
inclination: 71.0010°
perigee height: 830 km
apogee height: 845 km
right ascension of ascending node: 111.4205°
argument of perigee: 69.5411°
revolutions per day: 14.16317285
mean anomaly at epoch: 38.1721°
orbit number at epoch: 12195

The dashed part of the orbit path shows where the satellite is in the earth's shadow,  

DLR